timestamp,wind_dir_avg,wind_spd_avg,wind_spd_max_dir,wind_spd_gust,battery_voltage,lat,long
2021-04-19 00:04:01+00:00,42.0,7.09,46.0,7.65,12.57,47.59359,-54.27349
2021-04-19 00:14:01+00:00,46.0,6.77,46.0,7.4,12.49,47.59359,-54.27349
2021-04-19 00:24:01+00:00,46.0,6.35,46.0,6.98,12.49,47.59359,-54.27349
2021-04-19 00:34:01+00:00,48.0,7.0,52.0,7.76,12.49,47.59359,-54.27349
2021-04-19 00:44:01+00:00,42.0,6.62,46.0,7.31,12.49,47.59359,-54.27349
2021-04-19 00:54:01+00:00,47.0,6.54,46.0,7.36,12.49,47.59359,-54.27349
2021-04-19 01:04:01+00:00,51.0,4.56,48.0,5.37,12.49,47.59359,-54.27349
2021-04-19 01:14:00+00:00,71.0,3.81,69.0,4.53,12.49,47.59359,-54.27349
2021-04-19 01:24:00+00:00,62.0,4.0,66.0,4.47,12.49,47.59359,-54.27349
2021-04-19 01:34:00+00:00,54.0,4.59,54.0,5.0,12.49,47.59359,-54.27349
2021-04-19 01:44:00+00:00,48.0,4.65,49.0,5.03,12.49,47.59359,-54.27349
2021-04-19 01:54:00+00:00,47.0,5.13,43.0,5.62,12.49,47.59359,-54.27349
2021-04-19 02:04:00+00:00,49.0,4.94,45.0,5.64,12.49,47.59359,-54.27349
2021-04-19 02:14:00+00:00,42.0,4.7,40.0,5.09,12.49,47.59359,-54.27349
2021-04-19 02:24:00+00:00,43.0,5.41,43.0,5.75,12.49,47.59359,-54.27349
2021-04-19 02:34:00+00:00,44.0,5.02,42.0,5.44,12.49,47.59359,-54.27349
2021-04-19 02:44:00+00:00,38.0,5.15,42.0,5.62,12.49,47.59359,-54.27349
2021-04-19 02:54:00+00:00,38.0,5.22,38.0,5.73,12.49,47.59359,-54.27349
2021-04-19 03:04:00+00:00,42.0,5.17,44.0,5.58,12.49,47.59359,-54.27349
2021-04-19 03:14:00+00:00,39.0,5.21,38.0,5.58,12.49,47.59359,-54.27349
2021-04-19 03:24:00+00:00,42.0,4.63,42.0,5.35,12.49,47.59359,-54.27349
2021-04-19 03:34:00+00:00,42.0,4.64,40.0,4.93,12.49,47.59359,-54.27349
2021-04-19 03:44:00+00:00,36.0,4.41,35.0,4.84,12.49,47.59359,-54.27349
2021-04-19 03:54:00+00:00,43.0,4.24,42.0,4.66,12.49,47.59359,-54.27349
2021-04-19 04:04:00+00:00,46.0,3.84,48.0,4.42,12.49,47.59359,-54.27349
2021-04-19 04:14:01+00:00,48.0,3.3,49.0,3.95,12.41,47.59359,-54.27349
2021-04-19 04:24:01+00:00,42.0,3.11,40.0,3.41,12.41,47.59359,-54.27349
2021-04-19 04:34:01+00:00,49.0,2.77,47.0,3.07,12.41,47.59359,-54.27349
2021-04-19 04:44:01+00:00,50.0,2.69,47.0,3.08,12.41,47.59359,-54.27349
2021-04-19 04:54:01+00:00,53.0,2.37,56.0,2.82,12.41,47.59359,-54.27349
2021-04-19 05:04:01+00:00,55.0,2.69,60.0,2.9,12.41,47.59359,-54.27349
2021-04-19 05:14:00+00:00,56.0,3.07,55.0,3.43,12.41,47.59359,-54.27349
2021-04-19 05:24:00+00:00,52.0,2.34,52.0,2.65,12.41,47.59359,-54.27349
2021-04-19 05:34:00+00:00,51.0,1.99,50.0,2.31,12.41,47.59359,-54.27349
2021-04-19 05:44:00+00:00,51.0,2.38,51.0,2.57,12.41,47.59359,-54.27349
2021-04-19 05:54:00+00:00,48.0,1.36,54.0,1.74,12.41,47.59359,-54.27349
2021-04-19 06:04:00+00:00,49.0,2.2,48.0,2.39,12.41,47.59359,-54.27349
2021-04-19 06:14:00+00:00,45.0,1.59,44.0,1.76,12.41,47.59359,-54.27349
2021-04-19 06:24:00+00:00,35.0,1.79,37.0,1.93,12.41,47.59359,-54.27349
2021-04-19 06:34:00+00:00,32.0,2.12,32.0,2.32,12.41,47.59359,-54.27349
2021-04-19 06:44:00+00:00,36.0,1.95,36.0,2.26,12.41,47.59359,-54.27349
2021-04-19 06:54:00+00:00,54.0,2.65,54.0,3.04,12.41,47.59359,-54.27349
2021-04-19 07:04:00+00:00,59.0,2.55,58.0,3.05,12.41,47.59359,-54.27349
2021-04-19 07:14:00+00:00,57.0,2.22,58.0,2.66,12.33,47.59359,-54.27349
2021-04-19 07:24:00+00:00,68.0,2.08,63.0,2.33,12.33,47.59359,-54.27349
2021-04-19 07:34:00+00:00,83.0,1.52,76.0,1.93,12.33,47.59359,-54.27349
2021-04-19 07:44:00+00:00,77.0,1.73,82.0,1.94,12.33,47.59359,-54.27349
2021-04-19 07:54:00+00:00,122.0,0.99,140.0,1.71,12.33,47.59359,-54.27349
2021-04-19 08:04:00+00:00,171.0,1.54,190.0,1.98,12.33,47.59359,-54.27349
2021-04-19 08:14:01+00:00,199.0,2.33,201.0,3.39,12.33,47.59359,-54.27349
2021-04-19 08:24:01+00:00,199.0,4.27,199.0,4.6,12.33,47.59359,-54.27349
2021-04-19 08:34:01+00:00,202.0,4.68,203.0,4.9,12.33,47.59359,-54.27349
2021-04-19 08:44:01+00:00,199.0,4.55,200.0,5.0,12.33,47.59359,-54.27349
2021-04-19 08:54:01+00:00,200.0,4.83,193.0,7.14,12.33,47.59359,-54.27349
2021-04-19 09:04:01+00:00,225.0,2.7,208.0,4.1,12.33,47.59359,-54.27349
2021-04-19 09:14:00+00:00,211.0,3.9,211.0,4.61,12.33,47.59359,-54.27349
2021-04-19 09:24:00+00:00,222.0,3.97,221.0,4.67,12.33,47.59359,-54.27349
2021-04-19 09:34:00+00:00,238.0,2.6,226.0,3.38,12.33,47.59359,-54.27349
2021-04-19 09:44:00+00:00,229.0,2.95,228.0,3.3,12.33,47.59359,-54.27349
2021-04-19 09:54:00+00:00,233.0,2.7,227.0,3.59,12.33,47.59359,-54.27349
2021-04-19 10:04:00+00:00,235.0,2.63,237.0,2.88,12.33,47.59359,-54.27349
2021-04-19 10:14:00+00:00,209.0,1.15,207.0,1.36,12.41,47.59359,-54.27349
2021-04-19 10:24:00+00:00,238.0,1.64,234.0,1.93,12.41,47.59359,-54.27349
2021-04-19 10:34:00+00:00,196.0,1.58,195.0,1.9,12.41,47.59359,-54.27349
2021-04-19 10:44:00+00:00,179.0,1.48,180.0,1.83,12.41,47.59359,-54.27349
2021-04-19 10:54:00+00:00,174.0,1.36,181.0,1.52,12.41,47.59359,-54.27349
2021-04-19 11:04:00+00:00,183.0,1.58,195.0,1.89,12.41,47.59359,-54.27349
2021-04-19 11:14:00+00:00,192.0,2.08,190.0,2.51,13.21,47.59359,-54.27349
2021-04-19 11:24:00+00:00,188.0,2.04,193.0,2.13,13.21,47.59359,-54.27349
2021-04-19 11:34:00+00:00,198.0,0.86,200.0,1.09,13.21,47.59359,-54.27349
2021-04-19 11:44:00+00:00,205.0,1.65,207.0,1.82,13.21,47.59359,-54.27349
2021-04-19 11:54:00+00:00,232.0,1.38,207.0,2.06,13.21,47.59359,-54.27349
2021-04-19 12:04:00+00:00,202.0,2.39,203.0,2.75,13.21,47.59359,-54.27349
2021-04-19 12:14:00+00:00,234.0,0.88,254.0,1.63,13.76,47.59359,-54.27349
2021-04-19 12:24:00+00:00,258.0,1.32,269.0,1.66,13.76,47.59359,-54.27349
2021-04-19 12:34:00+00:00,265.0,2.14,265.0,2.48,13.76,47.59359,-54.27349
2021-04-19 12:44:00+00:00,198.0,2.32,192.0,2.86,13.76,47.59359,-54.27349
2021-04-19 12:54:00+00:00,235.0,1.7,251.0,2.0,13.76,47.59359,-54.27349
2021-04-19 13:04:00+00:00,215.0,1.72,222.0,1.94,13.76,47.59359,-54.27349
2021-04-19 13:14:00+00:00,205.0,1.87,212.0,2.14,13.92,47.59359,-54.27349
2021-04-19 13:24:00+00:00,193.0,1.37,192.0,1.74,13.92,47.59359,-54.27349
2021-04-19 13:34:00+00:00,192.0,1.3,196.0,1.53,13.92,47.59359,-54.27349
2021-04-19 13:44:00+00:00,174.0,0.9,184.0,1.06,13.92,47.59359,-54.27349
2021-04-19 13:54:00+00:00,159.0,1.06,159.0,1.25,13.92,47.59359,-54.27349
2021-04-19 14:04:00+00:00,184.0,0.69,182.0,1.01,13.92,47.59359,-54.27349
2021-04-19 14:14:01+00:00,203.0,3.56,206.0,3.93,14.32,47.59359,-54.27349
2021-04-19 14:24:01+00:00,200.0,3.49,205.0,3.82,14.32,47.59359,-54.27349
2021-04-19 14:34:01+00:00,211.0,3.6,211.0,3.89,14.32,47.59359,-54.27349
2021-04-19 14:44:01+00:00,210.0,4.41,208.0,4.76,14.32,47.59359,-54.27349
2021-04-19 14:54:01+00:00,207.0,4.06,206.0,4.32,14.32,47.59359,-54.27349
2021-04-19 15:04:01+00:00,207.0,4.09,211.0,4.79,14.32,47.59359,-54.27349
2021-04-19 15:14:01+00:00,220.0,5.01,217.0,5.84,14.32,47.59359,-54.27349
2021-04-19 15:24:01+00:00,222.0,5.68,231.0,7.19,14.32,47.59359,-54.27349
2021-04-19 15:34:01+00:00,219.0,7.23,223.0,8.16,14.32,47.59359,-54.27349
2021-04-19 15:44:01+00:00,222.0,6.89,229.0,8.12,14.32,47.59359,-54.27349
2021-04-19 15:54:01+00:00,220.0,7.16,217.0,7.89,14.32,47.59359,-54.27349
2021-04-19 16:04:01+00:00,219.0,6.48,221.0,7.2,14.32,47.59359,-54.27349
2021-04-19 16:14:01+00:00,218.0,6.35,215.0,7.04,13.76,47.59359,-54.27349
2021-04-19 16:24:01+00:00,218.0,5.78,215.0,6.58,13.76,47.59359,-54.27349
2021-04-19 16:34:01+00:00,219.0,6.04,217.0,6.57,13.76,47.59359,-54.27349
2021-04-19 16:44:01+00:00,228.0,5.82,230.0,6.44,13.76,47.59359,-54.27349
2021-04-19 16:54:01+00:00,225.0,6.51,224.0,7.08,13.76,47.59359,-54.27349
2021-04-19 17:04:01+00:00,219.0,6.76,220.0,7.63,13.76,47.59359,-54.27349
2021-04-19 17:14:01+00:00,225.0,6.49,228.0,8.07,14.0,47.59359,-54.27349
2021-04-19 17:24:01+00:00,226.0,6.6,226.0,7.57,14.0,47.59359,-54.27349
2021-04-19 17:34:01+00:00,224.0,7.21,229.0,8.57,14.0,47.59359,-54.27349
2021-04-19 17:44:01+00:00,222.0,6.38,223.0,7.55,14.0,47.59359,-54.27349
2021-04-19 17:54:01+00:00,221.0,6.28,220.0,7.21,14.0,47.59359,-54.27349
2021-04-19 18:04:01+00:00,214.0,7.75,215.0,8.4,14.0,47.59359,-54.27349
2021-04-19 18:14:01+00:00,208.0,8.58,209.0,9.36,13.84,47.59359,-54.27349
2021-04-19 18:24:01+00:00,210.0,8.78,210.0,9.92,13.84,47.59359,-54.27349
2021-04-19 18:34:01+00:00,209.0,8.06,211.0,9.21,13.84,47.59359,-54.27349
2021-04-19 18:44:01+00:00,204.0,8.24,204.0,8.96,13.84,47.59359,-54.27349
2021-04-19 18:54:01+00:00,206.0,7.74,209.0,8.79,13.84,47.59359,-54.27349
2021-04-19 19:04:01+00:00,209.0,7.89,210.0,8.52,13.84,47.59359,-54.27349
2021-04-19 19:14:00+00:00,214.0,7.44,212.0,8.0,13.84,47.59359,-54.27349
2021-04-19 19:24:00+00:00,209.0,7.21,210.0,8.04,13.84,47.59359,-54.27349
2021-04-19 19:34:00+00:00,208.0,7.08,209.0,7.59,13.84,47.59359,-54.27349
2021-04-19 19:44:00+00:00,203.0,7.92,202.0,8.98,13.84,47.59359,-54.27349
2021-04-19 19:54:00+00:00,201.0,8.14,202.0,8.88,13.84,47.59359,-54.27349
2021-04-19 20:04:00+00:00,203.0,7.9,203.0,9.01,13.84,47.59359,-54.27349
2021-04-19 20:14:00+00:00,201.0,8.38,200.0,8.96,13.92,47.59359,-54.27349
2021-04-19 20:24:00+00:00,209.0,8.13,208.0,8.89,13.92,47.59359,-54.27349
2021-04-19 20:34:00+00:00,210.0,8.05,205.0,8.9,13.92,47.59359,-54.27349
2021-04-19 20:44:00+00:00,211.0,7.35,207.0,8.68,13.92,47.59359,-54.27349
2021-04-19 20:54:00+00:00,213.0,7.58,214.0,8.33,13.92,47.59359,-54.27349
2021-04-19 21:04:00+00:00,210.0,7.16,212.0,7.99,13.92,47.59359,-54.27349
2021-04-19 21:14:00+00:00,208.0,8.3,207.0,9.25,13.84,47.59359,-54.27349
2021-04-19 21:24:00+00:00,201.0,7.95,199.0,9.34,13.84,47.59359,-54.27349
2021-04-19 21:34:00+00:00,204.0,8.17,205.0,8.68,13.84,47.59359,-54.27349
2021-04-19 21:44:00+00:00,212.0,8.17,213.0,8.8,13.84,47.59359,-54.27349
2021-04-19 21:54:00+00:00,214.0,7.49,211.0,8.29,13.84,47.59359,-54.27349
2021-04-19 22:04:00+00:00,209.0,7.64,210.0,8.39,13.84,47.59359,-54.27349
2021-04-19 22:14:00+00:00,206.0,7.99,210.0,8.52,13.37,47.59359,-54.27349
2021-04-19 22:24:00+00:00,202.0,7.29,203.0,8.23,13.37,47.59359,-54.27349
2021-04-19 22:34:00+00:00,204.0,7.63,204.0,8.16,13.37,47.59359,-54.27349
2021-04-19 22:44:00+00:00,200.0,6.27,200.0,7.15,13.37,47.59359,-54.27349
2021-04-19 22:54:00+00:00,200.0,5.91,201.0,6.73,13.37,47.59359,-54.27349
2021-04-19 23:04:00+00:00,207.0,5.39,207.0,6.08,13.37,47.59359,-54.27349
2021-04-19 23:14:01+00:00,212.0,5.15,212.0,5.54,12.81,47.59359,-54.27349
2021-04-19 23:24:01+00:00,213.0,4.09,217.0,4.38,12.81,47.59359,-54.27349
2021-04-19 23:34:01+00:00,216.0,3.4,218.0,3.92,12.81,47.59359,-54.27349
2021-04-19 23:44:01+00:00,220.0,3.71,216.0,4.19,12.81,47.59359,-54.27349
2021-04-19 23:54:01+00:00,218.0,4.04,220.0,4.3,12.81,47.59359,-54.27349
